Naples, FL

3:55 AM EST on November 21, 2017 (GMT -0500)
Naples Municipal

Weather History for KAPF - March, 2013

Change the Weather History Date:

Saturday, March 9, 2013

  Actual Average Record
Temperature  
Mean Temperature 64 °F 69 °F  
Max Temperature 79 °F 79 °F 91 °F (1974)
Min Temperature 49 °F 59 °F 36 °F (1971)
Degree Days  
Heating Degree Days 1 1  
Month to date heating degree days 55 9  
Since 1 July heating degree days 149 242  
Cooling Degree Days 0 5  
Month to date cooling degree days 0 45  
Year to date cooling degree days 328 236  
Growing Degree Days 14 (Base 50)    
Moisture  
Dew Point 47 °F    
Average Humidity 60    
Maximum Humidity 93    
Minimum Humidity 26    
Precipitation  
Precipitation 0.00 in 0.07 in 4.06 in (1978)
Month to date precipitation 0.05 0.61  
Year to date precipitation 1.87 4.56  
Snow  
Snow 0.00 in - - ()
Month to date snowfall 0.0  
Since 1 July snowfall 0.0  
Snow Depth 0.00 in    
Sea Level Pressure  
Sea Level Pressure 30.16 in    
Wind  
Wind Speed 7 mph (ENE)    
Max Wind Speed 16 mph    
Max Gust Speed 20 mph    
Visibility 9 miles    
Events      
T = Trace of Precipitation, MM = Missing Value Source: NWS Daily Summary

Daily Weather History Graph

Daily Weather History Graph

Search for Another Location

Airport or City:

Trip Planner

Search our weather history database for the weather conditions in past years. The results will help you decide how hot, cold, wet, or windy it might be!

Date:

Astronomy

Mar. 09, 2013 Rise Set
Actual Time 6:42 AM EST 6:33 PM EST
Civil Twilight 6:19 AM EST 6:56 PM EST
Nautical Twilight 5:52 AM EST 7:22 PM EST
Astronomical Twilight 5:25 AM EST 7:49 PM EST
Moon 4:55 AM EST (3/9) 4:41 PM EST (3/9)
Length of Visible Light 12h 36m
Length of Day
11h 50m
Waning Crescent, 5% of the Moon is Illuminated
Mar 9
Waning Crescent
Mar 11
New
Mar 19
First Quarter
Mar 27
Full
Apr 3
Last Quarter

Hourly Weather History & Observations

Time (EST) Temp. Dew Point Humidity Pressure Visibility Wind Dir Wind Speed Gust Speed Precip Events Conditions
12:53 AM 55.0 °F 48.9 °F 80% 30.17 in 9.0 mi ENE 4.6 mph - N/A   Clear
1:53 AM 54.0 °F 48.0 °F 80% 30.16 in 8.0 mi NE 3.5 mph - N/A   Clear
2:53 AM 54.0 °F 48.0 °F 80% 30.14 in 8.0 mi Calm Calm - N/A   Clear
3:53 AM 53.1 °F 46.9 °F 80% 30.14 in 8.0 mi NE 3.5 mph - N/A   Clear
4:53 AM 52.0 °F 46.9 °F 83% 30.14 in 8.0 mi ENE 3.5 mph - N/A   Clear
5:53 AM 51.1 °F 48.0 °F 89% 30.16 in 6.0 mi NE 3.5 mph - N/A   Clear
6:53 AM 48.9 °F 46.9 °F 93% 30.17 in 5.0 mi NE 4.6 mph - N/A   Clear
7:53 AM 54.0 °F 48.9 °F 83% 30.19 in 6.0 mi NE 4.6 mph - N/A   Haze
8:53 AM 63.0 °F 50.0 °F 63% 30.19 in 8.0 mi NE 8.1 mph - N/A   Clear
9:53 AM 69.1 °F 51.1 °F 53% 30.20 in 10.0 mi East 9.2 mph - N/A   Clear
10:53 AM 73.9 °F 45.0 °F 35% 30.19 in 10.0 mi ENE 9.2 mph - N/A   Clear
11:53 AM 75.0 °F 44.1 °F 33% 30.18 in 10.0 mi East 6.9 mph - N/A   Clear
12:53 PM 77.0 °F 43.0 °F 30% 30.17 in 10.0 mi East 8.1 mph - N/A   Clear
1:53 PM 79.0 °F 43.0 °F 28% 30.11 in 10.0 mi East 12.7 mph - N/A   Clear
2:53 PM 77.0 °F 39.9 °F 26% 30.12 in 10.0 mi NE 8.1 mph - N/A   Clear
3:53 PM 77.0 °F 41.0 °F 28% 30.10 in 10.0 mi ENE 9.2 mph - N/A   Clear
4:53 PM 75.0 °F 45.0 °F 34% 30.11 in 10.0 mi NE 9.2 mph - N/A   Clear
5:53 PM 72.0 °F 44.1 °F 37% 30.11 in 10.0 mi NE 8.1 mph - N/A   Clear
6:53 PM 70.0 °F 44.1 °F 39% 30.13 in 10.0 mi North 3.5 mph - N/A   Clear
7:53 PM 68.0 °F 50.0 °F 52% 30.16 in 10.0 mi ENE 10.4 mph - N/A   Clear
8:53 PM 66.0 °F 52.0 °F 60% 30.18 in 10.0 mi East 6.9 mph - N/A   Clear
9:53 PM 64.0 °F 53.1 °F 67% 30.18 in 10.0 mi East 8.1 mph - N/A   Clear
10:53 PM 63.0 °F 53.1 °F 70% 30.18 in 10.0 mi East 6.9 mph - N/A   Clear
11:53 PM 61.0 °F 52.0 °F 72% 30.16 in 10.0 mi East 6.9 mph - N/A   Clear